Regional Weather Roundup
Issued by NWS

Home | Current Version | Previous Version | Graphics & Text | Print | Product List | Glossary On
Versions: 1 2 3 4 5 6 7 8 9 10 11 12 13 14 15 16 17 18 19 20 21 22 23 24 25 26 27 28 29 30 31 32 33 34 35 36 37 38 39 40 41 42 43 44 45 46 47 48 49 50
063
ASUS44 KLIX 281005
RWRLA
LOUISIANA WEATHER ROUNDUP
NATIONAL WEATHER SERVICE NEW ORLEANS LA
400 AM CST SAT FEB 28 2015

NOTE: "FAIR" INDICATES FEW OR NO CLOUDS BELOW 12,000 FEET WITH NO
      SIGNIFICANT WEATHER AND/OR OBSTRUCTIONS TO VISIBILITY.
      SKY/WX - SKY CONDITION AND SIGNIFICANT WEATHER.
      TMP - AIR TEMPERATURE.    DP   - DEWPOINT TEMPERATURE.
      RH  - RELATIVE HUMIDITY.  PRES - PRESSURE.
      HX  - HEAT INDEX.         WCI  - WIND CHILL INDEX.

*  THESE STATIONS ARE NOT NWS OR FAA STATIONS AND ARE NOT UNDER
   NWS QUALITY CONTROL.

LAZ040-048-061>063-065-066-069-281100-
SOUTHEAST LOUISIANA

CITY           SKY/WX    TMP DP  RH WIND       PRES   REMARKS
N.O. AUDUBON     N/A     45  32  60 MISG        N/A
N.O. INTL ARPT MOCLDY    44  31  60 NE14      30.37S
N.O. LAKEFRONT MOCLDY    46  31  55 NE20      30.38S
SLIDELL        PTCLDY    38  27  64 NE7       30.38S WCI  33
BATON ROUGE    CLEAR     33  28  81 NE7       30.39F WCI  27
BOOTHVILLE     MOCLDY    50  42  74 NE12      30.34R
BELLE CHASSE   MOCLDY    44  31  60 NE6       30.36S
BOGALUSA*        N/A     36  27  68 N6        30.43S WCI  31
GALLIANO*      CLOUDY    46  37  68 MISG      30.35S
NEW ROADS*     FAIR      33  27  77 NE8       30.40F WCI  26
GONZALES*      CLOUDY    37  31  80 N6        30.38F WCI  32
HAMMOND*       CLEAR     36  27  69 NE3       30.42R
HOUMA*         CLOUDY    43  35  72 NE10      30.35S
PORT FOURCHON* PTSUNNY   48  37  66 NE17      30.36S

$$

LAZ041-044-053-054-281100-
SOUTHWEST LOUISIANA

CITY           SKY/WX    TMP DP  RH WIND       PRES   REMARKS
LAKE CHARLES   CLOUDY    37  29  72 NE16      30.34S WCI  28
LAFAYETTE      CLEAR     34  28  79 NE10      30.35F WCI  26
PATTERSON      MOCLDY    39  30  70 NE13      30.35F WCI  32
SALT POINT       N/A     39  33  79 VRB7      30.31F WCI  34
NEW IBERIA     CLEAR     35  29  78 NE17G24   30.34F WCI  25
CHENAULT AIRPK NOT AVBL

$$

LAZ027-028-281100-
CENTRAL LOUISIANA

CITY           SKY/WX    TMP DP  RH WIND       PRES   REMARKS
FORT POLK      CLOUDY    33  26  73 E7        30.35R WCI  27
ALEXANDRIA INT CLEAR     32  25  75 E7        30.38F WCI  26
ALEXANDRIA     CLEAR     32  25  75 E5        30.39F WCI  27

$$

LAZ001-002-281100-
NORTHWEST LOUISIANA

CITY           SKY/WX    TMP DP  RH WIND       PRES   REMARKS
SHREVEPORT     CLOUDY    32  23  69 E8        30.40F WCI  25
BARKSDALE AFB  CLOUDY    31  22  68 NE2       30.41F
DTN SHREVEPORT CLOUDY    31  20  63 NE7       30.42F WCI  24

$$

LAZ014-016-281100-
NORTHEAST LOUISIANA

CITY           SKY/WX    TMP DP  RH WIND       PRES   REMARKS
MONROE         CLOUDY    32  26  78 NE7       30.46F WCI  26
TALLULAH       MOCLDY    33  27  78 N7        30.46S WCI  27

$$




USA.gov is the U.S. government's official web portal to all federal, state and local government web resources and services.